Location: Newark
(51.3318°N, 0.0053°E)
Time: 09:23:10
(UTC+00:00)

CAS-4B - Visible Passes

Search period start: 04 July 2022 00:00
Search period end: 14 July 2022 00:00
Orbit: 524 x 536 km, 43.0° (Epoch: 03 July)

Date Brightness Start Highest point End Pass type
(mag) Time Alt. Az. Time Alt. Az. Time Alt. Az.
04 Jul ? 02:09:07 16° SSW 02:10:59 22° SSE 02:14:09 10° ESE visible
05 Jul ? 01:56:54 19° SSW 01:58:26 23° S 02:01:40 10° ESE visible
06 Jul ? 01:44:44 21° SSW 01:45:53 24° S 01:49:11 10° ESE visible
07 Jul ? 01:32:37 23° SSW 01:33:20 25° S 01:36:40 10° ESE visible
08 Jul ? 01:20:38 25° S 01:20:47 25° S 01:24:07 10° ESE visible
08 Jul ? 02:57:07 10° WSW 03:00:03 19° SSW 03:03:00 10° SSE visible
09 Jul ? 01:08:53 24° SSE 01:08:53 24° SSE 01:11:34 10° SE visible
09 Jul ? 02:44:43 10° WSW 02:47:29 18° SSW 02:50:15 10° SSE visible
10 Jul ? 00:57:37 17° SE 00:57:37 17° SE 00:59:00 10° SE visible
10 Jul ? 02:32:54 12° SW 02:34:54 16° SSW 02:37:27 10° SSE visible
11 Jul ? 02:22:39 15° SSW 02:22:39 15° SSW 02:24:35 10° SSE visible
11 Jul ? 21:11:09 10° SSE 21:12:11 11° SSE 21:13:12 10° SE visible
11 Jul ? 22:48:05 10° SW 22:48:46 13° SW 22:48:46 13° SW visible
12 Jul ? 20:57:50 10° S 20:59:33 12° SSE 21:01:16 10° SE visible
12 Jul ? 22:35:27 10° SW 22:37:59 22° S 22:37:59 22° S visible
13 Jul ? 22:22:49 10° SW 22:26:06 24° S 22:26:28 24° SSE visible
